Flag for U.S.A. Weather past 2 weeks in Des Moines, Iowa, U.S.A.

Now
59 °F

Light rain. Mostly cloudy.


Feels Like: 59 °F
Forecast: 51 / 66 °F
Wind: 5 mph from East

Location: Des Moines International Airport

Current Time: Apr 19, 2015 at 6:22:22 AM

Latest Report: Apr 19, 2015 at 5:54 AM


Visibility: 7 mi

Pressure: 29.74 "Hg

Humidity: 90%

Dew point: 56 °F

Location of Des MoinesLocation

Historic Weather in Des Moines — Graph

°F

Des Moines temperature yesterday

Maximum temperature yesterday: 75 °F (at 1:54 PM)
Minimum temperature yesterday: 60 °F (at 11:54 PM)
Average temperature yesterday: 65 °F

Past Weeks' High & Low Weather Summary

 TemperatureHumidityPressure
High80 °F (Apr 17, 2:54 PM)97% (Apr 9, 8:54 AM)30.30 "Hg (Apr 9, 8:54 AM)
Low31 °F (Apr 4, 5:54 AM)17% (Apr 14, 1:54 PM)29.51 "Hg (Apr 9, 2:54 PM)
Average57 °F59%29.98 "Hg
* Reported Apr 4 4:54 AM — Apr 19 4:54 AM, Des Moines, Weather by CustomWeather, © 2015

Note: Actual official high and low records may vary slightly from our data, if they occured in-between our weather recording intervals... More about our weather records

Advertising

Des Moines weather history for previous 24 hours

 ConditionsComfort  
Time TempWeatherWind HumidityBarometerVisibility
4:54 AM
Sun, Apr 19
59 °FMostly cloudy.No wind90%29.75 "Hg8 mi
3:54 AM58 °FLow clouds.3 mph93%29.76 "Hg10 mi
2:54 AM58 °FMostly cloudy.3 mph93%29.77 "Hg10 mi
1:54 AM58 °FMostly cloudy.8 mph93%29.79 "Hg10 mi
12:54 AM59 °FMostly cloudy.7 mph90%29.80 "Hg10 mi
11:54 PM
Sat, Apr 18
60 °FLow clouds.9 mph90%29.81 "Hg10 mi
10:54 PM61 °FMostly cloudy.8 mph90%29.81 "Hg9 mi
9:54 PM62 °FMostly cloudy.3 mph90%29.81 "Hg10 mi
8:54 PM62 °FLight rain. Overcast.6 mph90%29.82 "Hg10 mi
7:54 PM62 °FLight rain. Overcast.6 mph93%29.83 "Hg9 mi
6:54 PM63 °FLight rain. Mostly cloudy.6 mph90%29.87 "Hg8 mi
5:54 PM64 °FLight rain. Cloudy.6 mph87%29.85 "Hg10 mi
4:54 PM64 °FMostly cloudy.3 mph84%29.85 "Hg10 mi
3:54 PM62 °FLight rain. Fog.7 mph86%29.88 "Hg6 mi
2:54 PM66 °FLight rain. Cloudy.17 mph70%29.89 "Hg10 mi
1:54 PM75 °FMostly cloudy.25 mph52%29.85 "Hg10 mi
12:54 PM74 °FMore clouds than sun.14 mph53%29.88 "Hg10 mi
11:54 AM72 °FMostly cloudy.9 mph55%29.91 "Hg10 mi
10:54 AM70 °FBroken clouds.12 mph61%29.93 "Hg10 mi
9:54 AM65 °FMostly cloudy.9 mph73%29.94 "Hg10 mi
8:54 AM63 °FCloudy.13 mph78%29.94 "Hg10 mi
7:54 AM62 °FMostly cloudy.13 mph83%29.96 "Hg10 mi
6:54 AM62 °FOvercast.5 mph83%29.96 "Hg10 mi
Weather by CustomWeather, © 2015

See weather overviewHow to use our weather pages